FW7380 Weather Reports


Display with metric or nautical units.
time (UTC)temp
F
wind
direction
speed
MPH
gust
MPH
rain 1hr
in
rain 24hr
in
rain mn
in
humidity
%
barometer
mb
20260905200047 64 0 0.0 4.0 0.01 0.01 0.01 91 1011.5
20260905194545 66 0 0.0 3.0 0.00 0.00 0.00 85 1011.6
20260905193049 71 0 1.0 3.0 0.00 0.00 0.00 76 1011.2
20260905191550 72 0 0.0 2.0 0.00 0.00 0.00 77 1010.9
20260905190045 72 0 0.0 1.0 0.00 0.00 0.00 74 1010.9
20260905184611 74 0 0.0 3.0 0.00 0.00 0.00 74 1010.8
20260905183051 75 0 0.0 2.0 0.00 0.00 0.00 68 1010.8
20260905181555 74 0 0.0 3.0 0.00 0.00 0.00 70 1010.8
20260905180051 72 203 0.0 2.0 0.00 0.00 0.00 72 1010.9
20260905174547 72 0 0.0 2.0 0.00 0.00 0.00 74 1010.9
20260905173044 73 210 0.0 2.0 0.00 0.00 0.00 71 1010.7
20260905171544 73 221 1.0 4.0 0.00 0.00 0.00 73 1010.7
20260905170046 73 0 0.0 2.0 0.00 0.00 0.00 71 1010.7
20260905164546 73 181 0.0 2.0 0.00 0.00 0.00 72 1010.6
20260905163045 73 0 0.0 3.0 0.00 0.00 0.00 73 1010.7
20260905161548 72 0 0.0 2.0 0.00 0.00 0.00 73 1010.8
20260905160049 71 195 0.0 2.0 0.00 0.00 0.00 77 1010.8
20260905154607 69 0 0.0 1.0 0.00 0.00 0.00 79 1011.0
20260905153044 70 0 0.0 0.0 0.00 0.00 0.00 79 1011.0
20260905151550 68 0 0.0 2.0 0.00 0.00 0.00 80 1010.9
20260905150045 67 0 0.0 0.0 0.00 0.00 0.00 83 1010.9
20260905144546 67 0 0.0 0.0 0.00 0.00 0.00 81 1010.9
20260905143044 68 0 0.0 0.0 0.00 0.00 0.00 80 1010.8
20260905141547 68 0 0.0 0.0 0.00 0.00 0.00 82 1010.9
20260905140047 67 0 0.0 0.0 0.00 0.00 0.00 84 1010.8
20260905134543 67 0 0.0 1.0 0.00 0.00 0.00 85 1010.7
20260905133049 66 0 0.0 1.0 0.00 0.00 0.00 86 1010.6
20260905131545 0 0 0.0 0.0 0.00 0.00 0.00 1010.3
20260905130048 0 0.0 0.0 0.00 0.00 0.00 1010.4
20260905124547 0 0.0 0.0 0.00 0.00 0.00 1010.3
20260905123049 0 0.0 0.0 0.00 0.00 0.00 1010.1
20260905121545 0 0.0 0.0 0.00 0.00 0.00 1010.0
20260905120049 0 0.0 0.0 0.00 0.00 0.00 1009.8
20260905114547 0 0.0 0.0 0.00 0.00 0.00 1009.7
20260905113050 0 0.0 0.0 0.00 0.00 0.00 1009.5
20260905111616 0 0.0 0.0 0.00 0.00 0.00 1009.6
20260905110046 0 0.0 0.0 0.00 0.00 0.00 1009.5
20260905104544 0 0.0 0.0 0.00 0.00 0.00 1009.4
20260905103046 0 0.0 0.0 0.00 0.00 0.00 1009.3
20260905101553 0 0.0 0.0 0.00 0.00 0.00 1009.2
20260905100050 0 0.0 0.0 0.00 0.00 0.00 1009.2
20260905094546 0 0.0 0.0 0.00 0.00 0.00 1008.9
20260905093044 0 0.0 0.0 0.00 0.00 0.00 1008.8
20260905091547 0 0.0 1.0 0.00 0.00 0.00 1008.9
20260905090045 61 0 0.0 1.0 0.00 0.00 0.00 91 1008.7
20260905084550 62 0 0.0 0.0 0.00 0.00 0.00 90 1008.6
20260905083048 62 0 0.0 1.0 0.00 0.00 0.00 89 1008.6
20260905081546 63 0 0.0 1.0 0.00 0.00 0.00 89 1008.7
20260905080055 63 0 0.0 1.0 0.00 0.00 0.00 88 1008.5
20260905074547 63 207 0.0 2.0 0.00 0.01 0.00 87 1008.6
20260905073053 63 0 0.0 1.0 0.00 0.01 0.00 87 1008.6
20260905071546 63 0 1.0 2.0 0.00 0.01 0.00 88 1008.7
20260905070045 63 0 0.0 2.0 0.00 0.01 0.00 88 1008.8
20260905064543 62 181 0.0 0.0 0.00 0.01 0.00 89 1009.1
20260905063047 63 0 0.0 0.0 0.00 0.01 0.00 88 1009.2
20260905061546 63 181 0.0 1.0 0.00 0.01 0.00 87 1009.2
20260905060045 64 188 0.0 0.0 0.00 0.01 0.00 86 1009.3
20260905054543 64 0 0.0 2.0 0.00 0.01 0.00 86 1009.4
20260905053047 64 185 0.0 1.0 0.00 0.01 0.00 86 1009.3
20260905051550 64 0 0.0 1.0 0.00 0.01 0.00 86 1009.4
20260905050045 64 173 0.0 1.0 0.00 0.01 0.00 86 1009.4
20260905044545 64 0 0.0 0.0 0.00 0.01 0.00 85 1009.2
20260905043055 65 0 0.0 1.0 0.00 0.01 0.00 84 1009.1
20260905041545 65 174 0.0 1.0 0.00 0.01 0.00 83 1009.5
20260905040046 65 0 0.0 0.0 0.00 0.01 0.00 82 1009.3
20260905034554 66 0 0.0 0.0 0.00 0.01 0.01 82 1009.3
20260905033110 66 0 0.0 0.0 0.00 0.01 0.01 81 1009.5
20260905031554 67 0 0.0 0.0 0.00 0.01 0.01 79 1009.6
20260905030055 67 0 0.0 0.0 0.00 0.01 0.01 79 1009.6
20260905024547 68 0 0.0 0.0 0.00 0.01 0.01 78 1009.7
20260905023055 67 0 0.0 1.0 0.00 0.01 0.01 78 1009.7
20260905021547 67 0 0.0 0.0 0.00 0.01 0.01 79 1009.8
20260905020043 66 0 0.0 0.0 0.00 0.01 0.01 81 1010.0
20260905014546 67 0 0.0 0.0 0.00 0.01 0.01 79 1010.0
20260905013046 67 0 0.0 0.0 0.00 0.01 0.01 77 1010.1
20260905011547 67 0 0.0 0.0 0.00 0.01 0.01 77 1010.2
20260905010049 67 0 0.0 0.0 0.00 0.01 0.01 76 1010.1
20260905004550 68 0 0.0 0.0 0.00 0.01 0.01 74 1009.9
20260905003044 69 0 0.0 1.0 0.00 0.01 0.01 72 1010.0
20260905001554 70 0 0.0 1.0 0.00 0.01 0.01 71 1009.9
20260905000055 71 0 0.0 1.0 0.00 0.01 0.01 70 1009.7
20260904234547 71 0 0.0 1.0 0.00 0.01 0.01 70 1009.7
20260904233047 71 200 0.0 1.0 0.00 0.01 0.01 70 1009.4
20260904231544 71 0 0.0 0.0 0.00 0.01 0.01 72 1009.3
20260904230106 72 0 0.0 0.0 0.00 0.01 0.01 71 1009.3
20260904224545 73 0 0.0 0.0 0.00 0.01 0.01 72 1009.2
20260904223050 75 0 0.0 0.0 0.00 0.01 0.01 68 1009.1
20260904221547 75 194 0.0 1.0 0.00 0.01 0.01 64 1009.0
20260904220051 76 0 0.0 1.0 0.00 0.01 0.01 63 1009.1
20260904214545 75 0 0.0 0.0 0.00 0.01 0.01 65 1008.9
20260904213046 76 0 0.0 0.0 0.00 0.01 0.01 63 1009.0
20260904211544 77 179 0.0 3.0 0.00 0.01 0.01 61 1009.1
20260904210045 79 187 0.0 3.0 0.00 0.01 0.01 60 1009.0
20260904204544 79 0 0.0 4.0 0.00 0.01 0.01 58 1009.0
20260904203047 79 184 1.0 5.0 0.00 0.01 0.01 60 1009.0
20260904201546 80 205 1.0 4.0 0.00 0.01 0.01 60 1009.2